sat.trackr.live / text

‹ back to catalog

STARLINK-3772

NORAD 52290 · 2022-041AF

PAYLOAD ACTIVE UNKNOWN

§ Identity

Operator
Country
US
Launch date
2022-04-21
Launch site
AFETR
Launch vehicle
Mass (kg)
RCS (m²)

Purposes: comms

External: N2YO · Heavens-Above · Gunter

§ Orbital elements

Epoch: 2026-05-25T04:41:15.815616Z

Period
95.44 min
Inclination
53.2137°
Eccentricity
0.0001603
Mean motion
15.08844058 rev/d
Perigee alt
538.6 km
Apogee alt
540.8 km
Semi-major
6,917.9 km
B*
-4.5048e-5
RAAN
115.6714°
Arg perigee
80.2421°
Mean anomaly
279.8753°
Rev number
22,605

§ Raw data

STARLINK-37721 52290U 22041AF  26145.19532194 -.00001005  00000+0 -45048-4 0  99912 52290  53.2137 115.6714 0001603  80.2421 279.8753 15.08844058226052

JSON: /api/v1/satellites/52290 · /tle

For live sub-satellite position, see the globe view (requires WebGL).

§ Visibility from observer

Set your observer location to see the next 7 days of passes ≥ 10°. The values pass through the URL so the page stays shareable.

No JS? Fill the form by hand. The geolocation button needs JavaScript.